Regional Weather Roundup
Issued by NWS

Home | Current Version | Previous Version | Graphics & Text | Print | Product List | Glossary On
Versions: 1 2 3 4 5 6 7 8 9 10 11 12 13 14 15 16 17 18 19 20 21 22 23 24 25 26 27 28 29 30 31 32 33 34 35 36 37 38 39 40 41 42 43 44 45 46 47 48 49 50
000
ASUS43 KIND 300509
RWRIN

WEATHER ROUNDUP FOR INDIANA
NATIONAL WEATHER SERVICE INDIANAPOLIS IN
100 AM EDT SAT MAY 30 2015

NOTE: "FAIR" INDICATES FEW OR NO CLOUDS BELOW 12,000 FEET WITH NO
SIGNIFICANT WEATHER AND/OR OBSTRUCTIONS TO VISIBILITY.

* - STATION DOES NOT REPORT WEATHER SUCH AS PRECIPITATION OR FOG.

+ - STATION NOT QUALITY CONTROLLED BY THE NATIONAL WEATHER SERVICE.
    USE DATA WITH CAUTION...ESPECIALLY DEWPOINT AND RELATIVE
    HUMIDITY OBSERVATIONS.

INZ001>003-010>013-019-020-300600-
NORTHWEST INDIANA

CITY           SKY/WX    TMP DP  RH WIND       PRES   REMARKS
GARY /AIRPORT/ CLOUDY    73  66  78 SW3       29.96S
KNOX *+        CLOUDY    68  68 100 SW5       29.98R
LA PORTE +     CLOUDY    72  68  87 SW7       29.99R
MICHIGAN CITY+ LGT RAIN  70  63  78 S9        29.97S
MONTICELLO +   CLOUDY    72  68  88 S6        29.99S
RENSSELAER +   CLOUDY    72  64  78 S7        29.99S
VALPARAISO     CLOUDY    70  66  87 SW8       29.98S

$$

LMZ046-743>745-300600-
SOUTHERN LAKE MICHIGAN

STATION/POSITION TIME  TEMP    WIND        PRES    WAVE
                       AIR SEA DIR/SP/G            HT
                 (UTC) (F)     (DEG/KT/KT) (MB)    (FT)
BURNS HARBOR     0500   70     200/ 10/ 17 1014.9S
MICHIGAN CITY    0500   72     170/ 11/ 13   N/A
5NW MICH CITY    0500   64 56  210/  8/ 10   N/A     1

$$

INZ004-005-014>016-021>024-300600-
NORTH CENTRAL INDIANA

CITY           SKY/WX    TMP DP  RH WIND       PRES   REMARKS
GOSHEN         MOCLDY    74  64  71 SW8       29.98S
LOGANSPORT +   PTCLDY    72  61  68 S10       30.01S
PERU/GRISSOM   PTCLDY    73  65  78 S12       29.99F
ROCHESTER +    MOCLDY    77  66  69 S10G16    30.00S
SOUTH BEND     CLOUDY    71  67  87 S7        29.97S

$$

INZ006>009-017-018-025>027-300600-
NORTHEAST INDIANA

CITY           SKY/WX    TMP DP  RH WIND       PRES   REMARKS
ANGOLA *+      CLEAR     73  66  78 SW9       29.99S
FORT WAYNE     PTCLDY    71  64  78 S9        30.01S
HUNTINGTON +   PTCLDY    71  64  78 SW5       30.01S

$$

INZ028-029-035-036-043>045-051>053-300600-
WEST CENTRAL INDIANA

CITY           SKY/WX    TMP DP  RH WIND       PRES   REMARKS
CRAWFORDSVL +  PTCLDY    69  61  76 S5        30.02S
GREENCASTLE +  CLEAR     70  63  78 S7        30.03F
LAFAYETTE      MOCLDY    73  65  75 S5        29.99S
TERRE HAUTE    PTCLDY    69  68  96 S5        30.01F

$$

INZ030>032-037>040-046>048-054>057-064-065-300600-
CENTRAL INDIANA

CITY           SKY/WX    TMP DP  RH WIND       PRES   REMARKS
CP ATTERBURY + CLEAR     64  63  94 CALM      30.05F
FISHERS *+     CLEAR     72  66  83 S7        30.03
FRANKFORT +    PTCLDY    73  66  79 S7        30.03S
GREENWOOD *+   CLEAR     72  63  73 S7        30.04F
INDIANAPOLIS   PTCLDY    72  64  76 S10       30.01F
-EAGLE CREEK   CLEAR     71  65  81 S3        30.02F
KOKOMO *+      PTCLDY    73  64  73 S13       30.01F
MARION +       PTCLDY    71  62  74 S8        30.03F
MT COMFORT *+  CLEAR     70  59  68 S5        30.04F
SHELBYVILLE    CLEAR     72  64  76 S6        30.04F
ZIONSVILLE +   CLEAR     73  63  71 S9        30.04S

$$

INZ033-034-041-042-049-050-058-059-300600-
EAST CENTRAL INDIANA

CITY           SKY/WX    TMP DP  RH WIND       PRES   REMARKS
MUNCIE         CLEAR     72  64  76 S8        30.03F

$$

INZ060-061-067>069-081>083-085>088-300600-
SOUTHWEST INDIANA

CITY           SKY/WX    TMP DP  RH WIND       PRES   REMARKS
EVANSVILLE     CLEAR     72  67  84 CALM      30.04S
HUNTINGBURG *+ CLEAR     72  66  83 S5        30.05F
WASHINGTON +   PTCLDY    72  66  83 SW6       30.03S

$$

INZ062-063-066-070>080-084-089>092-300600-
SOUTH CENTRAL AND SOUTHEAST INDIANA

CITY           SKY/WX    TMP DP  RH WIND       PRES   REMARKS
BLOOMINGTON    CLEAR     70  66  87 S6        30.04F
MADISON *+     PTCLDY    72  63  73 S3        30.09S
NORTH VERNON + CLEAR     70  70 100 S6        30.07F
SEYMOUR +      CLEAR     72  64  78 S3        30.05F

$$



USA.gov is the U.S. government's official web portal to all federal, state and local government web resources and services.